TimeEDT,TemperatureF,Dew PointF,Humidity,Sea Level PressureIn,VisibilityMPH,Wind Direction,Wind SpeedMPH,Gust SpeedMPH,PrecipitationIn,Events,Conditions,WindDirDegrees,DateUTC
12:53 AM,36.0,12.9,39,30.01,10.0,SW,12.7,19.6,N/A,,Mostly Cloudy,220,2013-04-04 04:53:00
1:53 AM,37.0,17.1,44,29.98,10.0,SW,12.7,23.0,N/A,,Overcast,220,2013-04-04 05:53:00
2:53 AM,37.0,21.9,54,29.96,10.0,SW,13.8,20.7,N/A,,Overcast,230,2013-04-04 06:53:00
3:53 AM,37.0,23.0,57,29.94,10.0,WSW,12.7,19.6,N/A,,Overcast,250,2013-04-04 07:53:00
4:53 AM,37.9,25.0,60,29.92,10.0,WSW,15.0,-,N/A,,Overcast,250,2013-04-04 08:53:00
5:53 AM,37.9,26.1,62,29.91,10.0,WSW,11.5,-,N/A,,Overcast,250,2013-04-04 09:53:00
6:53 AM,37.9,26.1,62,29.91,10.0,WSW,9.2,-,N/A,,Overcast,250,2013-04-04 10:53:00
7:53 AM,37.9,27.0,65,29.90,10.0,West,16.1,25.3,N/A,,Overcast,260,2013-04-04 11:53:00
8:53 AM,37.0,28.0,70,29.91,10.0,West,17.3,-,N/A,,Overcast,280,2013-04-04 12:53:00
9:53 AM,36.0,30.0,79,29.91,10.0,WNW,15.0,-,N/A,,Overcast,290,2013-04-04 13:53:00
10:14 AM,35.6,30.2,81,29.87,10.0,NW,16.1,-,N/A,,Overcast,310,2013-04-04 14:14:00
10:53 AM,36.0,30.0,79,29.91,10.0,NW,11.5,-,N/A,,Mostly Cloudy,310,2013-04-04 14:53:00
11:53 AM,37.9,28.0,68,29.92,10.0,NW,11.5,21.9,N/A,,Partly Cloudy,320,2013-04-04 15:53:00
12:53 PM,37.9,26.1,62,29.93,10.0,WNW,13.8,-,N/A,,Clear,300,2013-04-04 16:53:00
1:53 PM,37.9,27.0,65,29.93,10.0,WNW,23.0,31.1,N/A,,Partly Cloudy,290,2013-04-04 17:53:00
2:53 PM,37.9,27.0,65,29.94,10.0,WNW,24.2,31.1,N/A,,Overcast,300,2013-04-04 18:53:00
3:53 PM,37.9,27.0,65,29.94,10.0,WNW,23.0,38.0,N/A,,Clear,290,2013-04-04 19:53:00
4:53 PM,37.9,25.0,60,29.95,10.0,WNW,23.0,28.8,N/A,,Scattered Clouds,290,2013-04-04 20:53:00
5:53 PM,36.0,25.0,64,29.98,10.0,NW,18.4,-,N/A,,Partly Cloudy,310,2013-04-04 21:53:00
6:53 PM,36.0,21.0,55,30.00,10.0,NW,19.6,-,N/A,,Clear,320,2013-04-04 22:53:00
7:53 PM,34.0,23.0,64,30.02,10.0,NW,12.7,-,N/A,,Clear,310,2013-04-04 23:53:00
8:53 PM,32.0,24.1,73,30.04,10.0,WNW,10.4,-,N/A,,Mostly Cloudy,300,2013-04-05 00:53:00
9:53 PM,32.0,24.1,73,30.07,10.0,NNW,6.9,-,N/A,,Overcast,330,2013-04-05 01:53:00
10:53 PM,30.9,19.9,64,30.09,10.0,North,9.2,-,N/A,,Clear,360,2013-04-05 02:53:00
11:53 PM,28.9,18.0,64,30.11,10.0,NNE,6.9,-,N/A,,Scattered Clouds,20,2013-04-05 03:53:00